This demonstration page uses our WeatherBlox Daily Observations layout. Learn more.

Left ArrowRight Arrow

38.20091, -84.87328

Hourly Observations for January 24, 2020

Temp ( °F °C ) Dew Point ( °F °C ) Humidity (%) Winds ( mph kmh ) Pressure ( in mb ) Visibility ( mi km ) Precip ( " mm )
12:05 am 00:05 Cloudy with Light Rain 41 5 39 3.9 93 93 Calm 30.00 1016 8 13 0.01 0.25
12:16 am 00:16 Cloudy 41 5 39 3.9 93 93 Calm 30.00 1016 10 16 0.01 0.25
12:53 am 00:53 Cloudy with Light Rain 41 5 39 3.9 93 93 Calm 29.96 1015 6 10 0.02 0.51
1:53 am 01:53 Cloudy with Light Rain 42 5.6 40 4.4 92 92 Calm 29.95 1014 6 10 0.05 1.27
2:11 am 02:11 Cloudy with Light Rain 41 5 40 4.4 96 96 E 6 9 29.96 1014 6 10 0.02 0.51
2:53 am 02:53 Cloudy with Rain 42 5.6 40 4.4 92 92 ESE 7 11 29.93 1014 4 6 0.10 2.54
3:41 am 03:41 Cloudy with Light Rain 44 6.7 42 5.6 93 93 SSE 9 15 29.94 1014 7 11 0.08 2.03
3:53 am 03:53 Cloudy with Light Rain 44 6.7 42 5.6 93 93 SE 8 13 29.92 1013 5 8 0.09 2.29
4:27 am 04:27 Cloudy with Light Rain 44 6.7 43 6.1 96 96 E 7 11 29.92 1013 5 8 0.03 0.76
4:46 am 04:46 Cloudy with Light Rain 44 6.7 42 5.6 93 93 ESE 6 9 29.92 1013 7 11 0.05 1.27
4:53 am 04:53 Cloudy with Light Rain 44 6.7 42 5.6 93 93 ESE 6 9 29.90 1013 7 11 0.06 1.52
5:53 am 05:53 Cloudy with Light Rain 43 6.1 41 5 93 93 E 6 9 29.89 1012 8 13 0.08 2.03
6:30 am 06:30 Cloudy with Light Rain 43 6.1 41 5 93 93 E 5 7 29.90 1013 3 5 0.05 1.27
6:53 am 06:53 Cloudy with Light Rain 43 6.1 41 5 93 93 Calm 29.89 1012 3 4 0.07 1.78
7:08 am 07:08 Cloudy with Light Rain 43 6.1 41 5 93 93 Calm 29.90 1013 3 5 0.01 0.25
7:44 am 07:44 Cloudy with Light Rain 43 6.1 42 5.6 97 97 Calm 29.90 1013 3 4 0.04 1.02
7:53 am 07:53 Cloudy with Rain 43 6.1 41 5 93 93 Calm 29.89 1012 2 2 0.07 1.78
8:13 am 08:13 Cloudy with Light Rain 43 6.1 41 5 93 93 E 3 6 29.90 1013 2 3 0.03 0.76
8:32 am 08:32 Cloudy with Light Rain 44 6.7 42 5.6 93 93 ESE 5 7 29.89 1012 3 4 0.05 1.27
8:34 am 08:34 Cloudy with Light Rain 44 6.7 42 5.6 93 93 E 5 7 29.89 1012 3 5 0.06 1.52
8:53 am 08:53 Cloudy with Light Rain 44 6.7 43 6.1 96 96 SE 3 6 29.88 1012 4 6 0.07 1.78
9:08 am 09:08 Cloudy with Rain 44 6.7 42 5.6 93 93 SE 5 7 29.91 1013 2 3 0.03 0.76
9:21 am 09:21 Cloudy with Rain 44 6.7 43 6.1 96 96 SE 3 6 29.90 1013 3 4 0.06 1.52
9:25 am 09:25 Cloudy with Rain 44 6.7 43 6.1 96 96 SSE 3 6 29.90 1013 3 5 0.07 1.78
9:39 am 09:39 Cloudy with Rain 45 7.2 44 6.7 97 97 ESE 3 6 29.90 1012 4 6 0.10 2.54
9:47 am 09:47 Cloudy with Light Rain 45 7 45 7 100 100 SE 5 7 29.90 1012 5 8 0.10 2.54
9:48 am 09:48 Cloudy with Light Rain 45 7.2 44 6.7 97 97 SE 5 7 29.89 1012 6 10 0.10 2.54
10:43 am 10:43 Cloudy with Light Rain 47 8.3 45 7.2 93 93 S 6 9 29.90 1012 5 8 0.07 1.78
10:53 am 10:53 Cloudy with Light Rain 47 8.3 45 7.2 93 93 SSE 7 11 29.88 1012 5 8 0.08 2.03
11:14 am 11:14 Cloudy with Light Rain 47 8.3 45 7.2 93 93 SE 5 7 29.89 1012 10 16 0.02 0.51
11:22 am 11:22 Cloudy with Light Rain 47 8.3 45 7.2 93 93 SSE 6 9 29.90 1012 8 13 0.02 0.51
11:40 am 11:40 Cloudy with Rain 47 8.3 46 7.8 97 97 S 7 11 29.90 1012 5 8 0.05 1.27
11:53 am 11:53 Cloudy with Rain 48 8.9 46 7.8 93 93 S 8 13 29.88 1012 4 6 0.08 2.03
12:15 pm 12:15 Cloudy with Light Rain 48 8.9 46 7.8 93 93 S 7 11 29.87 1012 9 14 0.02 0.51
12:53 pm 12:53 Cloudy 48 8.9 46 7.8 93 93 S 8 13 29.84 1011 10 16 0.03 0.76
1:05 pm 13:05 Cloudy 48 8.9 46 7.8 93 93 S 6 9 29.84 1011 10 16 0.00 0.00
1:53 pm 13:53 Cloudy 49 9.4 46 7.8 90 90 SSW 9 15 29.82 1010 10 16 0.00 0.00
2:02 pm 14:02 Cloudy with Light Rain 49 9.4 45 7.2 86 86 SSW 6 9 29.82 1010 10 16 0.00 0.00
2:11 pm 14:11 Cloudy with Light Rain 49 9.4 46 7.8 90 90 SSW 10 17 29.82 1010 10 16 0.00 0.00
2:20 pm 14:20 Cloudy with Light Rain 50 10 46 7.8 86 86 SSW 9 15 29.81 1009 7 11 0.01 0.25
2:53 pm 14:53 Mostly Cloudy with Rain 48 8.9 43 6.1 83 83 SW 12 19 29.80 1009 5 8 0.02 0.51
3:02 pm 15:02 Cloudy with Light Rain 49 9.4 44 6.7 83 83 SSW 8 13 29.81 1010 8 13 0.01 0.25
3:53 pm 15:53 Mostly Sunny 50 10 43 6.1 77 77 SW 14 22 29.80 1009 10 16 0.01 0.25
4:53 pm 16:53 Sunny 49 9.4 42 5.6 77 77 SW 7 11 29.80 1009 10 16 0.00 0.00
5:53 pm 17:53 Cloudy 46 7.8 41 5 83 83 SW 6 9 29.82 1010 10 16 0.00 0.00
6:03 pm 18:03 Cloudy with Heavy Rain 44 6.7 40 4.4 85 85 SW 13 20 29.86 1011 3 4 0.08 2.03
6:13 pm 18:13 Cloudy with Light Rain 43 6.1 40 4.4 89 89 WSW 9 15 29.86 1011 7 11 0.08 2.03
6:53 pm 18:53 Cloudy 43 6.1 40 4.4 89 89 WSW 8 13 29.87 1011 10 16 0.08 2.03
7:53 pm 19:53 Cloudy 42 5.6 38 3.3 85 85 SSW 7 11 29.88 1012 10 16 0.00 0.00
8:00 pm 20:00 Cloudy 42 5.6 38 3.3 85 85 SSW 8 13 29.90 1013 10 16 0.00 0.00
8:53 pm 20:53 Cloudy 42 5.6 38 3.3 85 85 SW 6 9 29.88 1012 10 16 0.00 0.00
9:53 pm 21:53 Cloudy 42 5.6 38 3.3 85 85 SW 9 15 29.89 1012 10 16 0.00 0.00
10:30 pm 22:30 Cloudy 41 5 38 3.3 89 89 SW 9 15 29.91 1013 10 16 0.00 0.00
10:53 pm 22:53 Cloudy 41 5 37 2.8 86 86 WSW 7 11 29.88 1012 10 16 0.00 0.00
11:20 pm 23:20 Cloudy 41 5 37 2.8 86 86 SW 9 15 29.92 1013 10 16 0.00 0.00
11:28 pm 23:28 Cloudy 41 5 37 2.8 86 86 SW 12 19 29.92 1013 10 16 0.00 0.00
11:53 pm 23:53 Cloudy with Light Rain 40 4.4 36 2.2 86 86 SW 13 20 29.90 1013 10 16 0.01 0.25

Powered by AerisWeather